This is the latest recevied weather packets stored in our database for station/object K9TLD. If no packets are shown the sender has not sent any weather packets the latest 10 day(s).
| Time | Temp. | Humidity | Pressure | Rain* | Wind** | Luminosity | Snow |
|---|---|---|---|---|---|---|---|
| 1778192564 | 7.22° C | 68% | 1012.7 hPa | 0 mm | - | 110 W/m² | - |
| 1778192262 | 7.22° C | 66% | 1012.9 hPa | 0 mm | - | 139 W/m² | - |
| 1778191958 | 7.22° C | 67% | 1012.9 hPa | 0 mm | - | 98 W/m² | - |
| 1778191655 | 7.22° C | 65% | 1012.9 hPa | 0 mm | - | 114 W/m² | - |
| 1778191353 | 7.78° C | 65% | 1012.9 hPa | 0 mm | - | 101 W/m² | - |
| 1778191049 | 7.78° C | 64% | 1012.7 hPa | 0 mm | - | 79 W/m² | - |
| 1778190746 | 7.78° C | 61% | 1013 hPa | 0 mm | - | 132 W/m² | - |
| 1778190443 | 8.33° C | 62% | 1013 hPa | 0 mm | - | 145 W/m² | - |
| 1778190140 | 8.89° C | 60% | 1012.7 hPa | 0 mm | - | 130 W/m² | - |
| 1778189836 | 8.33° C | 57% | 1012.7 hPa | 0 mm | - | 307 W/m² | - |
| 1778189533 | 8.89° C | 58% | 1012.8 hPa | 0 mm | - | 110 W/m² | - |
| 1778189229 | 8.89° C | 57% | 1012.7 hPa | 0 mm | - | 236 W/m² | - |
| 1778188926 | 8.33° C | 59% | 1012.9 hPa | 0 mm | - | 187 W/m² | - |
| 1778188623 | 8.33° C | 60% | 1012.8 hPa | 0 mm | - | 182 W/m² | - |
| 1778188318 | 8.33° C | 58% | 1012.9 hPa | 0 mm | - | 113 W/m² | - |
| 1778188016 | 8.33° C | 58% | 1013 hPa | 0 mm | - | 135 W/m² | - |
| 1778187712 | 8.89° C | 57% | 1013 hPa | 0 mm | - | 113 W/m² | - |
| 1778187409 | 8.89° C | 55% | 1013.2 hPa | 0 mm | - | 124 W/m² | - |
| 1778187106 | 9.44° C | 55% | 1013 hPa | 0 mm | - | 177 W/m² | - |
| 1778186802 | 10° C | 56% | 1013.1 hPa | 0 mm | - | 214 W/m² | - |
| 1778186500 | 9.44° C | 55% | 1013.1 hPa | 0 mm | - | 506 W/m² | - |
| 1778186197 | 10° C | 56% | 1013.3 hPa | 0 mm | - | 242 W/m² | - |
| 1778185895 | 9.44° C | 63% | 1013.1 hPa | 0 mm | - | 584 W/m² | - |
| 1778185590 | 8.89° C | 62% | 1013.4 hPa | 0 mm | - | 277 W/m² | - |
| 1778185287 | 8.89° C | 64% | 1013.4 hPa | 0 mm | - | 567 W/m² | - |
* Rain latest hour (hover to see other rain measurements)
** Current wind speed in m/s (hover to see current wind gust speed)